GW4109 Weather Reports


time (UTC)temp
C
wind
direction
speed
KPH
gust
KPH
rain 1hr
cm
rain 24hr
cm
rain mn
cm
humidity
%
barometer
mb
20260903103026 21 192 0.0 3.2 0.00 0.00 0.00 18 1014.9
20260903102521 21 215 1.6 4.8 0.00 0.00 0.00 17 1014.7
20260903102019 21 148 1.6 3.2 0.00 0.00 0.00 18 1014.9
20260903101514 20 193 3.2 4.8 0.00 0.00 0.00 18 1014.7
20260903101010 20 248 3.2 3.2 0.00 0.00 0.00 19 1014.9
20260903100505 21 287 1.6 3.2 0.00 0.00 0.00 18 1014.8
20260903100003 22 209 1.6 3.2 0.00 0.00 0.00 18 1014.9
20260903095501 22 227 0.0 3.2 0.00 0.00 0.00 18 1014.9
20260903094956 22 208 3.2 4.8 0.00 0.00 0.00 18 1014.9
20260903094456 22 158 1.6 3.2 0.00 0.00 0.00 18 1014.9
20260903093953 22 198 3.2 4.8 0.00 0.00 0.00 18 1015.0
20260903093447 21 231 1.6 3.2 0.00 0.00 0.00 20 1015.0
20260903092943 22 183 1.6 3.2 0.00 0.00 0.00 21 1015.1
20260903092443 22 121 1.6 1.6 0.00 0.00 0.00 21 1015.1
20260903091942 22 230 0.0 1.6 0.00 0.00 0.00 21 1015.0
20260903091440 22 122 0.0 3.2 0.00 0.00 0.00 21 1015.0
20260903090935 21 187 1.6 3.2 0.00 0.00 0.00 21 1015.1
20260903090431 21 221 1.6 3.2 0.00 0.00 0.00 22 1015.0
20260903085929 21 173 1.6 4.8 0.00 0.00 0.00 22 1015.0
20260903085428 21 182 1.6 4.8 0.00 0.00 0.00 22 1015.2
20260903084928 21 209 1.6 3.2 0.00 0.00 0.00 22 1015.1
20260903084426 22 269 1.6 3.2 0.00 0.00 0.00 21 1015.0
20260903083922 22 123 0.0 3.2 0.00 0.00 0.00 21 1015.1
20260903083418 23 260 3.2 4.8 0.00 0.00 0.00 20 1015.2
20260903082917 23 84 0.0 4.8 0.00 0.00 0.00 20 1015.2
20260903082412 22 151 1.6 3.2 0.00 0.00 0.00 21 1015.2
20260903081907 22 218 0.0 3.2 0.00 0.00 0.00 21 1015.3
20260903081402 22 207 0.0 3.2 0.00 0.00 0.00 21 1015.3
20260903080858 22 164 1.6 3.2 0.00 0.00 0.00 21 1015.5
20260903080355 22 180 1.6 3.2 0.00 0.00 0.00 21 1015.5
20260903075855 22 130 0.0 4.8 0.00 0.00 0.00 21 1015.4
20260903075351 22 179 3.2 4.8 0.00 0.00 0.00 21 1015.6
20260903074851 22 204 3.2 4.8 0.00 0.00 0.00 20 1015.6
20260903074345 21 120 0.0 3.2 0.00 0.00 0.00 21 1015.5
20260903073841 21 249 3.2 3.2 0.00 0.00 0.00 20 1015.7
20260903073341 22 145 0.0 3.2 0.00 0.00 0.00 20 1015.6
20260903072837 23 132 0.0 3.2 0.00 0.00 0.00 20 1015.5
20260903072333 22 318 0.0 1.6 0.00 0.00 0.00 20 1015.8
20260903071829 22 157 1.6 4.8 0.00 0.00 0.00 20 1015.4
20260903071325 23 324 3.2 4.8 0.00 0.00 0.00 19 1015.8
20260903070820 25 235 0.0 1.6 0.00 0.00 0.00 20 1015.8
20260903070315 25 159 1.6 1.6 0.00 0.00 0.00 20 1015.7
20260903065810 25 129 1.6 4.8 0.00 0.00 0.00 19 1015.8
20260903065309 25 116 0.0 3.2 0.00 0.00 0.00 19 1015.8
20260903064809 24 217 3.2 6.4 0.00 0.00 0.00 20 1015.8
20260903064304 25 241 0.0 1.6 0.00 0.00 0.00 20 1015.9
20260903063800 25 129 1.6 6.4 0.00 0.00 0.00 20 1015.9
20260903063255 25 95 1.6 6.4 0.00 0.00 0.00 21 1015.9
20260903062751 25 112 4.8 9.7 0.00 0.00 0.00 21 1015.8
20260903062250 25 82 4.8 6.4 0.00 0.00 0.00 22 1016.0
20260903061747 25 97 4.8 6.4 0.00 0.00 0.00 21 1015.9
20260903061245 25 132 1.6 4.8 0.00 0.00 0.00 21 1015.8
20260903060742 25 60 3.2 4.8 0.00 0.00 0.00 21 1015.8
20260903060241 26 65 3.2 6.4 0.00 0.00 0.00 21 1016.0
20260903055739 25 75 0.0 3.2 0.00 0.00 0.00 21 1015.9
20260903055237 25 52 1.6 1.6 0.00 0.00 0.00 21 1016.1
20260903054733 26 10 3.2 3.2 0.00 0.00 0.00 20 1016.0
20260903054228 27 65 3.2 4.8 0.00 0.00 0.00 20 1016.0
20260903053725 28 26 3.2 9.7 0.00 0.00 0.00 18 1016.0
20260903053224 28 298 9.7 19.3 0.00 0.00 0.00 14 1016.2
20260903052720 28 290 8.0 16.1 0.00 0.00 0.00 16 1016.2
20260903052215 28 317 9.7 22.5 0.00 0.00 0.00 16 1016.1
20260903051710 28 281 8.0 12.9 0.00 0.00 0.00 17 1016.1
20260903051206 28 288 8.0 12.9 0.00 0.00 0.00 17 1016.0
20260903050702 28 252 8.0 16.1 0.00 0.00 0.00 17 1016.0
20260903050200 25 255 3.2 3.2 0.00 0.00 0.00 19 1015.9
20260903045655 25 219 3.2 8.0 0.00 0.00 0.00 19 1016.1
20260903045152 26 170 1.6 4.8 0.00 0.00 0.00 19 1016.0
20260903044647 26 256 0.0 3.2 0.00 0.00 0.00 19 1016.1
20260903044137 26 186 0.0 3.2 0.00 0.00 0.00 20 1016.0
20260903043634 27 174 1.6 4.8 0.00 0.00 0.00 21 1016.1
20260903043132 27 13 0.0 3.2 0.00 0.00 0.00 21 1015.9
20260903042632 27 62 0.0 3.2 0.00 0.00 0.00 20 1015.9
20260903042127 27 165 3.2 3.2 0.00 0.00 0.00 20 1015.9
20260903041624 27 27 3.2 6.4 0.00 0.00 0.00 19 1015.8
20260903041120 27 89 6.4 6.4 0.00 0.00 0.00 18 1015.7
20260903040618 27 101 4.8 6.4 0.00 0.00 0.00 18 1015.8
20260903040115 28 83 3.2 4.8 0.00 0.00 0.00 16 1015.5
20260903035610 28 20 1.6 4.8 0.00 0.00 0.00 15 1015.6
20260903035106 29 15 3.2 3.2 0.00 0.00 0.00 15 1015.5
20260903034600 29 240 0.0 3.2 0.00 0.00 0.00 15 1015.4
20260903034055 30 57 1.6 3.2 0.00 0.00 0.00 14 1015.4
20260903033551 30 308 0.0 8.0 0.00 0.00 0.00 14 1015.3
20260903033046 30 14 1.6 6.4 0.00 0.00 0.00 15 1015.3
20260903032541 30 255 8.0 16.1 0.00 0.00 0.00 14 1015.2
20260903032036 30 335 0.0 9.7 0.00 0.00 0.00 15 1014.9
20260903031536 30 342 3.2 9.7 0.00 0.00 0.00 14 1014.9
20260903031031 30 307 8.0 11.3 0.00 0.00 0.00 15 1015.0
20260903030526 30 227 11.3 19.3 0.00 0.00 0.00 15 1014.9
20260903030023 30 268 4.8 19.3 0.00 0.00 0.00 15 1014.8
20260903025518 30 274 8.0 24.1 0.00 0.00 0.00 15 1014.7
20260903025014 30 266 6.4 12.9 0.00 0.00 0.00 15 1014.7
20260903024514 30 247 9.7 14.5 0.00 0.00 0.00 14 1014.6
20260903024013 30 272 8.0 11.3 0.00 0.00 0.00 14 1014.7
20260903023509 30 290 6.4 11.3 0.00 0.00 0.00 13 1014.5
20260903023004 31 218 6.4 9.7 0.00 0.00 0.00 14 1014.5
20260903022504 31 258 12.9 16.1 0.00 0.00 0.00 15 1014.4
20260903022002 31 215 1.6 11.3 0.00 0.00 0.00 13 1014.5
20260903021457 31 264 4.8 14.5 0.00 0.00 0.00 14 1014.6
20260903020952 31 255 4.8 8.0 0.00 0.00 0.00 15 1014.5
20260903020448 31 242 1.6 6.4 0.00 0.00 0.00 16 1014.4
20260903015942 31 248 1.6 4.8 0.00 0.00 0.00 17 1014.7
20260903015438 31 252 6.4 6.4 0.00 0.00 0.00 16 1014.6
20260903014933 31 194 1.6 8.0 0.00 0.00 0.00 15 1014.5
20260903014432 31 331 6.4 6.4 0.00 0.00 0.00 16 1014.4
20260903013927 31 281 4.8 19.3 0.00 0.00 0.00 16 1014.7
20260903013426 32 51 1.6 16.1 0.00 0.00 0.00 15 1014.7
20260903012920 32 245 9.7 12.9 0.00 0.00 0.00 16 1014.8
20260903012414 32 245 16.1 24.1 0.00 0.00 0.00 15 1014.7
20260903011914 32 258 11.3 14.5 0.00 0.00 0.00 17 1014.5
20260903011414 32 258 9.7 20.9 0.00 0.00 0.00 19 1014.6
20260903010909 32 272 9.7 20.9 0.00 0.00 0.00 18 1014.5
20260903010404 33 231 11.3 17.7 0.00 0.00 0.00 18 1014.5
20260903005902 33 255 19.3 22.5 0.00 0.00 0.00 18 1014.4
20260903005357 33 318 11.3 19.3 0.00 0.00 0.00 19 1014.5
20260903004854 34 293 8.0 22.5 0.00 0.00 0.00 18 1014.2
20260903004349 34 263 8.0 27.4 0.00 0.00 0.00 18 1014.2
20260903003844 35 253 16.1 19.3 0.00 0.00 0.00 18 1014.3
20260903003344 34 303 16.1 30.6 0.00 0.00 0.00 18 1014.2
20260903002844 35 314 9.7 22.5 0.00 0.00 0.00 18 1014.1
20260903002339 35 314 11.3 19.3 0.00 0.00 0.00 17 1014.3
20260903001833 35 309 14.5 19.3 0.00 0.00 0.00 17 1014.2
20260903001329 35 298 9.7 24.1 0.00 0.00 0.00 17 1014.1
20260903000829 35 262 8.0 19.3 0.00 0.00 0.00 17 1014.3
20260903000325 36 298 9.7 19.3 0.00 0.00 0.00 17 1014.2
20260902235822 36 297 14.5 20.9 0.00 0.00 0.00 17 1014.3
20260902235318 36 305 9.7 22.5 0.00 0.00 0.00 16 1014.2
20260902234817 36 292 9.7 12.9 0.00 0.00 0.00 15 1014.4
20260902234317 36 330 14.5 27.4 0.00 0.00 0.00 14 1014.2
20260902233816 36 255 9.7 9.7 0.00 0.00 0.00 13 1014.5
20260902233316 36 217 3.2 11.3 0.00 0.00 0.00 13 1014.3
20260902232815 37 301 3.2 11.3 0.00 0.00 0.00 13 1014.1
20260902232310 36 301 9.7 25.7 0.00 0.00 0.00 13 1014.5
20260902231809 37 255 11.3 20.9 0.00 0.00 0.00 13 1014.5
20260902231304 37 303 11.3 11.3 0.00 0.00 0.00 13 1014.6
20260902230759 36 147 3.2 11.3 0.00 0.00 0.00 13 1014.7
20260902230258 37 301 17.7 24.1 0.00 0.00 0.00 12 1014.7
20260902225753 36 330 14.5 25.7 0.00 0.00 0.00 13 1014.8
20260902225248 36 332 9.7 24.1 0.00 0.00 0.00 13 1014.8
20260902224746 37 296 11.3 17.7 0.00 0.00 0.00 13 1014.8
20260902224241 37 273 4.8 17.7 0.00 0.00 0.00 13 1014.9
20260902223738 37 321 11.3 14.5 0.00 0.00 0.00 12 1015.0
20260902223236 37 290 6.4 16.1 0.00 0.00 0.00 12 1014.6
20260902222730 37 302 11.3 22.5 0.00 0.00 0.00 13 1015.0
20260902222225 36 313 9.7 25.7 0.00 0.00 0.00 13 1015.0
20260902221720 37 248 11.3 22.5 0.00 0.00 0.00 12 1015.0
20260902221218 37 66 3.2 16.1 0.00 0.00 0.00 12 1015.0
20260902220714 37 297 12.9 17.7 0.00 0.00 0.00 12 1015.1
20260902220214 37 308 11.3 20.9 0.00 0.00 0.00 12 1015.2
20260902215710 37 295 9.7 29.0 0.00 0.00 0.00 11 1015.2
20260902215205 37 317 14.5 19.3 0.00 0.00 0.00 12 1015.2
20260902214700 37 283 8.0 22.5 0.00 0.00 0.00 12 1015.3
20260902214159 37 289 12.9 19.3 0.00 0.00 0.00 11 1015.3
20260902213655 37 284 14.5 17.7 0.00 0.00 0.00 12 1015.6
20260902213154 37 310 17.7 25.7 0.00 0.00 0.00 11 1015.3
20260902212649 38 268 9.7 14.5 0.00 0.00 0.00 12 1015.5
20260902212146 37 254 3.2 24.1 0.00 0.00 0.00 12 1015.5
20260902211642 37 247 17.7 27.4 0.00 0.00 0.00 12 1015.6
20260902211137 37 305 12.9 22.5 0.00 0.00 0.00 11 1015.5
20260902210636 37 273 9.7 14.5 0.00 0.00 0.00 11 1015.7
20260902210132 37 333 12.9 22.5 0.00 0.00 0.00 11 1015.7
20260902205630 37 249 14.5 22.5 0.00 0.00 0.00 9 1015.6
20260902205125 37 249 17.7 24.1 0.00 0.00 0.00 11 1015.7
20260902204620 36 254 11.3 27.4 0.00 0.00 0.00 10 1015.7
20260902204115 36 282 11.3 29.0 0.00 0.00 0.00 10 1016.0
20260902203610 37 240 27.4 40.2 0.00 0.00 0.00 9 1015.7
20260902203110 37 248 14.5 17.7 0.00 0.00 0.00 9 1015.9
20260902202605 37 263 9.7 11.3 0.00 0.00 0.00 9 1015.9
20260902202102 37 276 8.0 17.7 0.00 0.00 0.00 9 1016.0
20260902201557 37 266 4.8 25.7 0.00 0.00 0.00 9 1016.0
20260902201056 37 305 4.8 14.5 0.00 0.00 0.00 9 1015.9
20260902200551 36 247 9.7 17.7 0.00 0.00 0.00 9 1016.1
20260902200048 36 266 8.0 29.0 0.00 0.00 0.00 9 1016.3
20260902195543 36 265 11.3 17.7 0.00 0.00 0.00 9 1016.3
20260902195042 36 329 22.5 27.4 0.00 0.00 0.00 9 1016.3
20260902194541 36 301 12.9 20.9 0.00 0.00 0.00 9 1016.2
20260902194037 36 250 14.5 17.7 0.00 0.00 0.00 9 1016.5
20260902193533 36 266 8.0 20.9 0.00 0.00 0.00 9 1016.3
20260902193032 37 233 17.7 30.6 0.00 0.00 0.00 9 1016.7
20260902192531 36 326 6.4 16.1 0.00 0.00 0.00 9 1016.8
20260902192030 37 321 20.9 20.9 0.00 0.00 0.00 9 1016.7
20260902191526 37 264 9.7 22.5 0.00 0.00 0.00 9 1016.9
20260902191020 36 229 6.4 19.3 0.00 0.00 0.00 9 1016.8
20260902190516 36 262 14.5 22.5 0.00 0.00 0.00 9 1016.8
20260902190012 36 267 6.4 11.3 0.00 0.00 0.00 10 1017.1
20260902185508 36 288 20.9 29.0 0.00 0.00 0.00 9 1017.0
20260902185003 35 244 6.4 25.7 0.00 0.00 0.00 10 1017.2
20260902184458 36 257 11.3 17.7 0.00 0.00 0.00 9 1017.2
20260902183953 36 285 9.7 19.3 0.00 0.00 0.00 10 1017.2
20260902183449 35 311 16.1 24.1 0.00 0.00 0.00 10 1017.2
20260902182945 36 252 8.0 16.1 0.00 0.00 0.00 9 1017.3
20260902182441 36 281 6.4 14.5 0.00 0.00 0.00 9 1017.4
20260902181937 36 228 6.4 14.5 0.00 0.00 0.00 9 1017.4
20260902181432 36 242 8.0 14.5 0.00 0.00 0.00 10 1017.4
20260902180926 36 242 8.0 8.0 0.00 0.00 0.00 10 1017.5
20260902180422 36 276 4.8 4.8 0.00 0.00 0.00 10 1017.6
20260902175917 36 275 4.8 8.0 0.00 0.00 0.00 10 1017.5
20260902175412 35 163 0.0 3.2 0.00 0.00 0.00 10 1017.6
20260902174908 35 102 3.2 9.7 0.00 0.00 0.00 10 1017.6
20260902174405 35 235 0.0 3.2 0.00 0.00 0.00 10 1017.9
20260902173900 35 32 0.0 3.2 0.00 0.00 0.00 11 1017.6
20260902173359 35 107 6.4 6.4 0.00 0.00 0.00 11 1017.8
20260902172855 34 119 0.0 4.8 0.00 0.00 0.00 11 1017.7
20260902172354 35 75 0.0 6.4 0.00 0.00 0.00 11 1017.8
20260902171849 34 75 4.8 4.8 0.00 0.00 0.00 12 1017.7
20260902171344 33 83 4.8 11.3 0.00 0.00 0.00 12 1017.6
20260902170841 34 76 4.8 4.8 0.00 0.00 0.00 12 1017.8
20260902170336 34 100 6.4 8.0 0.00 0.00 0.00 12 1017.6
20260902165831 33 81 3.2 4.8 0.00 0.00 0.00 12 1017.6
20260902165330 33 16 3.2 4.8 0.00 0.00 0.00 13 1017.5
20260902164825 33 130 0.0 4.8 0.00 0.00 0.00 13 1017.7
20260902164321 33 127 1.6 4.8 0.00 0.00 0.00 13 1017.6
20260902163820 33 105 0.0 3.2 0.00 0.00 0.00 13 1018.0
20260902163320 33 148 3.2 4.8 0.00 0.00 0.00 13 1017.7
20260902162818 33 110 1.6 4.8 0.00 0.00 0.00 14 1017.7
20260902162313 32 119 1.6 4.8 0.00 0.00 0.00 14 1017.7
20260902161808 32 68 1.6 3.2 0.00 0.00 0.00 14 1017.7
20260902161304 32 225 0.0 3.2 0.00 0.00 0.00 14 1017.8
20260902160800 32 71 0.0 3.2 0.00 0.00 0.00 14 1017.8
20260902160255 32 131 0.0 3.2 0.00 0.00 0.00 15 1017.9
20260902155753 32 117 0.0 1.6 0.00 0.00 0.00 14 1017.6
20260902155252 31 350 1.6 3.2 0.00 0.00 0.00 15 1017.9
20260902154747 32 34 3.2 3.2 0.00 0.00 0.00 15 1017.7
20260902154243 32 41 0.0 3.2 0.00 0.00 0.00 15 1017.6
20260902153735 32 59 3.2 3.2 0.00 0.00 0.00 15 1017.5
20260902153236 31 232 0.0 3.2 0.00 0.00 0.00 15 1017.5
20260902152732 30 265 0.0 3.2 0.00 0.00 0.00 16 1017.7
20260902152227 30 296 0.0 1.6 0.00 0.00 0.00 16 1017.5
20260902151723 30 282 0.0 3.2 0.00 0.00 0.00 16 1017.5
20260902151223 31 356 3.2 3.2 0.00 0.00 0.00 16 1017.6
20260902150723 31 79 0.0 3.2 0.00 0.00 0.00 15 1017.5
20260902150219 31 84 1.6 3.2 0.00 0.00 0.00 16 1017.6
20260902145718 30 37 1.6 3.2 0.00 0.00 0.00 18 1017.6
20260902145213 30 15 0.0 1.6 0.00 0.00 0.00 19 1017.6
20260902144709 28 6 0.0 3.2 0.00 0.00 0.00 20 1017.7
20260902144205 28 343 3.2 3.2 0.00 0.00 0.00 19 1017.5
20260902143700 28 1 1.6 3.2 0.00 0.00 0.00 22 1017.5
20260902143155 28 318 0.0 1.6 0.00 0.00 0.00 19 1017.3
20260902142651 27 124 0.0 1.6 0.00 0.00 0.00 20 1017.3
20260902142147 26 201 0.0 3.2 0.00 0.00 0.00 20 1017.5
20260902141646 25 274 0.0 3.2 0.00 0.00 0.00 21 1017.6
20260902141142 24 268 1.6 3.2 0.00 0.00 0.00 22 1017.4
20260902140637 23 226 1.6 3.2 0.00 0.00 0.00 23 1017.3
20260902140132 23 168 1.6 3.2 0.00 0.00 0.00 23 1017.2
20260902135631 22 249 3.2 3.2 0.00 0.00 0.00 23 1017.3
20260902135126 22 190 1.6 3.2 0.00 0.00 0.00 24 1016.9
20260902134622 22 274 3.2 4.8 0.00 0.00 0.00 24 1017.2
20260902134121 22 142 1.6 3.2 0.00 0.00 0.00 24 1016.9
20260902133621 22 322 0.0 3.2 0.00 0.00 0.00 24 1017.0
20260902133116 22 220 0.0 3.2 0.00 0.00 0.00 24 1016.9
20260902132612 22 141 0.0 3.2 0.00 0.00 0.00 24 1017.0
20260902132107 21 251 0.0 3.2 0.00 0.00 0.00 24 1016.9
20260902131603 22 128 0.0 3.2 0.00 0.00 0.00 23 1016.9
20260902131058 22 228 0.0 3.2 0.00 0.00 0.00 24 1016.8
20260902130554 21 183 1.6 3.2 0.00 0.00 0.00 25 1016.7
20260902130049 22 234 3.2 3.2 0.00 0.00 0.00 24 1016.8
20260902125544 22 174 0.0 3.2 0.00 0.00 0.00 24 1016.9
20260902125040 22 212 0.0 1.6 0.00 0.00 0.00 24 1016.8
20260902124536 22 225 1.6 3.2 0.00 0.00 0.00 23 1016.7
20260902124031 22 201 0.0 3.2 0.00 0.00 0.00 23 1016.6
20260902123526 22 238 1.6 1.6 0.00 0.00 0.00 23 1016.7
20260902123021 21 236 3.2 3.2 0.00 0.00 0.00 24 1016.8
20260902122520 22 231 3.2 6.4 0.00 0.00 0.00 23 1016.6
20260902122015 22 237 6.4 6.4 0.00 0.00 0.00 23 1016.8
20260902121510 22 225 3.2 4.8 0.00 0.00 0.00 23 1016.6
20260902121005 22 108 0.0 3.2 0.00 0.00 0.00 23 1016.6
20260902120502 22 235 4.8 4.8 0.00 0.00 0.00 22 1016.8
20260902120002 22 200 4.8 6.4 0.00 0.00 0.00 22 1016.6
20260902115457 23 218 4.8 6.4 0.00 0.00 0.00 22 1016.6
20260902114954 23 222 1.6 3.2 0.00 0.00 0.00 22 1016.3
20260902114449 23 201 0.0 3.2 0.00 0.00 0.00 22 1016.5
20260902113944 23 249 1.6 6.4 0.00 0.00 0.00 21 1016.5
20260902113440 23 219 3.2 6.4 0.00 0.00 0.00 21 1016.5
20260902112939 22 240 6.4 6.4 0.00 0.00 0.00 22 1016.6
20260902112436 23 191 1.6 3.2 0.00 0.00 0.00 21 1016.3
20260902111931 23 253 0.0 3.2 0.00 0.00 0.00 21 1016.6
20260902111427 23 219 0.0 3.2 0.00 0.00 0.00 21 1016.8
20260902110923 23 234 1.6 4.8 0.00 0.00 0.00 21 1016.7
20260902110420 23 242 0.0 4.8 0.00 0.00 0.00 21 1016.7
20260902105919 23 241 4.8 6.4 0.00 0.00 0.00 21 1016.5
20260902105414 23 205 3.2 3.2 0.00 0.00 0.00 21 1016.5
20260902104910 23 283 0.0 3.2 0.00 0.00 0.00 21 1016.7
20260902104406 23 77 0.0 3.2 0.00 0.00 0.00 20 1016.9
20260902103905 22 159 3.2 3.2 0.00 0.00 0.00 21 1016.6